Regional Weather Roundup
Issued by NWS

Home | Current Version | Previous Version | Graphics & Text | Print | Product List | Glossary On
Versions: 1 2 3 4 5 6 7 8 9 10 11 12 13 14 15 16 17 18 19 20 21 22 23 24 25 26 27 28 29 30 31 32 33 34 35 36 37 38 39 40 41 42 43 44 45 46 47 48 49 50
000
ASUS43 KDTX 261001
RWRMI
MICHIGAN HOURLY REGIONAL WEATHER ROUNDUP
NATIONAL WEATHER SERVICE DETROIT/PONTIAC MI
500 AM EST SUN FEB 26 2017

NOTE: "FAIR" INDICATES FEW OR NO CLOUDS BELOW 12,000 FEET WITH NO
SIGNIFICANT WEATHER AND/OR OBSTRUCTION TO VISIBILITY.

MIZ047>049-052>055-059>063-066>070-074>076-081>083-261100-
SOUTHEAST LOWER MICHIGAN

CITY           SKY/WX    TMP DP  RH WIND       PRES   REMARKS
ADRIAN         CLOUDY    23  19  85 W6        30.06R WCI  16
ALMA           CLOUDY    22  17  80 SW6       30.01S WCI  15
ANN ARBOR      CLOUDY    23  18  81 SW9       30.04R WCI  13
BAD AXE        CLEAR     24  14  68 W7        29.97R WCI  15
CARO           PTCLDY    23  16  75 W9        29.99R WCI  13
DETROIT CITY   CLOUDY    25  18  74 W10       30.04R WCI  15
DETROIT        FLURRIES  25  18  74 W13       30.06R WCI  14
FLINT          CLOUDY    23  15  71 W7        30.02R WCI  15
GROSSE ILE     FLURRIES  26  18  72 W8        30.05R WCI  17
HILLSDALE      CLOUDY    23  19  86 SW5       30.02S WCI  17
HOWELL         CLOUDY    23  18  83 SW5       30.02R WCI  16

CITY           SKY/WX    TMP DP  RH WIND       PRES   REMARKS
JACKSON        PTCLDY    22  18  85 SW8       30.03R WCI  12
LAMBERTVILLE   FLURRIES  27  20  77 W7        30.07R WCI  19
LANSING        CLOUDY    22  16  78 SW9       30.03R WCI  12
LAPEER         FAIR      24  14  66 W7        30.00R WCI  16
MASON          CLOUDY    23  19  85 SW6       30.03R WCI  16
MONROE         FLURRIES  26  20  79 W9        30.06R WCI  16
MT. CLEMENS    FRZ DRZL  25  16  69 W10       30.01R WCI  15
PONTIAC        CLOUDY    23  13  65 W14       30.00R WCI  11
PORT HOPE        N/A     25  14  63 W10       29.94R WCI  15
PORT HURON     CLOUDY    25  14  63 W8        30.01R WCI  16
TRI CITIES     MOCLDY    24  17  74 SW12      30.00R WCI  13
MIDLAND        MOCLDY    24  16  71 SW7       29.99R WCI  16
TROY           CLOUDY    26  15  62 W12       30.05R WCI  15
SAGINAW HB     CLEAR     25  18  74 SW8       30.01R WCI  16
$$
MIZ043>046-050>051-056>058-064>065-071>073-077>080-261100-
SOUTHWEST LOWER MICHIGAN

CITY           SKY/WX    TMP DP  RH WIND       PRES   REMARKS
BATTLE CREEK   CLOUDY    20  16  84 S7        30.03S WCI  11
BENTON HARBOR  PTCLDY    26  15  63 S5        30.05R WCI  20
BIG RAPIDS     CLEAR     19  15  83 SW5       29.96R WCI  12
COLDWATER      CLOUDY    23  18  82 SW3       30.04S
FREMONT        FAIR      16  14  91 CALM      29.98S
HOLLAND        CLEAR     23  15  71 SW7       30.02S WCI  15
GRAND RAPIDS   CLEAR     23  16  74 S8        30.00S WCI  14
IONIA          FAIR      20  15  79 SW5       30.00S WCI  14
KALAMAZOO      PTCLDY    23  14  68 SW5       30.03S WCI  17
LUDINGTON      CLOUDY    28  19  69 W10       29.95R WCI  19
MARSHALL       CLOUDY    23  19  83 S3        30.03S
MOUNT PLEASANT CLEAR     23  17  77 SW7       29.98R WCI  14
MUSKEGON       CLEAR     25  16  68 SW6       30.00S WCI  18
SOUTH HAVEN    PTCLDY    27  18  69 SW5       30.04R WCI  21
$$
MIZ016>042-261100-
NORTHERN LOWER MICHIGAN

CITY           SKY/WX    TMP DP  RH WIND       PRES   REMARKS
ALPENA         CLEAR     22  15  75 SW10      29.90R WCI  11
BEAVER ISLAND  CLEAR     26  20  79 SW13      29.85S WCI  15
BELLAIRE       PTCLDY    21  15  79 S6        29.92R WCI  13
CADILLAC       PTCLDY    14  11  87 SW5       29.90R WCI   6
CHARLEVOIX     PTCLDY    27  19  72 SW8       29.90S WCI  19
FRANKFORT      PTCLDY    30  21  70 SW9       29.91S WCI  21
GAYLORD        CLEAR     18  12  77 SW9       29.86R WCI   7
GRAYLING       PTCLDY    19  14  82 SW6       29.91R WCI  10
HARBOR SPRINGS PTCLDY    24  18  77 CALM      29.87R
HOUGHTON LAKE  CLEAR     18  13  80 S8        29.92R WCI   8
MANISTEE       CLEAR     24  17  74 S5        29.94R WCI  18
OSCODA         CLEAR     20  15  82 SW8       29.94R WCI  10
TRAVERSE CITY  CLEAR     21  14  74 S6        29.91R WCI  13
$$
MIZ007>008-015-261100-
EASTERN UPPER MICHIGAN

CITY           SKY/WX    TMP DP  RH WIND       PRES   REMARKS
KINROSS        CLEAR     16  12  84 SW5       29.81R WCI   9
MACKINAC ISLAN PTCLDY    25  18  75 SW14G21   29.83S WCI  13
NEWBERRY       CLEAR     14   9  82 SW12      29.80R WCI   0
S. S. MARIE    CLEAR     19  12  74 SW8       29.80S WCI   9
MUNISING         N/A     19  11  70 S10       29.78F WCI   7
$$
MIZ004>006-011>014-085-261100-
CENTRAL UPPER MICHIGAN

CITY           SKY/WX    TMP DP  RH WIND       PRES   REMARKS
MANISTIQUE     CLOUDY    19  13  78 W5        29.82F WCI  12
ESCANABA       CLOUDY    18  12  77 SW10      29.84S WCI   6
MENOMINEE      CLOUDY    18  13  80 SW7       29.88F WCI   9
SAWYER-GWINN   PTCLDY    15  11  83 S6        29.75S WCI   7
$$
MIZ001>003-009>011-084-261100-
WESTERN UPPER MICHIGAN

CITY           SKY/WX    TMP DP  RH WIND       PRES   REMARKS
IRON MOUNTAIN  CLOUDY    20  10  65 S7        29.76F WCI  11
HOUGHTON       LGT SNOW  22  17  81 S8        29.67F WCI  12
COPPER HARBOR    N/A     24  19  81 W9        29.67F WCI  14
IRONWOOD       FLURRIES  22  17  81 SW10      29.68F WCI  11
$$

ABBREVIATIONS USED IN REMARKS
   TC - TEMPERATURE IN CELSIUS
  WCI - WIND CHILL INDEX
   HX - HEAT INDEX
  VSB - VISIBILITY





USA.gov is the U.S. government's official web portal to all federal, state and local government web resources and services.